Regional Weather Roundup
Issued by NWS

Home | Current Version | Previous Version | Text Only | Print | Product List | Glossary On
Versions: 1 2 3 4 5 6 7 8 9 10 11 12 13 14 15 16 17 18 19 20 21 22 23 24 25 26 27 28 29 30 31 32 33 34 35 36 37 38 39 40 41 42 43 44 45 46 47 48 49 50
000
ASUS42 KTBW 011217
RWRFL
FLORIDA REGIONAL WEATHER ROUNDUP
NATIONAL WEATHER SERVICE TAMPA BAY RUSKIN FL
800 AM EDT SAT AUG 01 2015

NOTE: "FAIR" INDICATES FEW OR NO CLOUDS BELOW 12,000 FEET WITH NO
SIGNIFICANT WEATHER AND/OR OBSTRUCTIONS TO VISIBILITY.


FLZ001>010-012>015-112-114-115-011300-
PANHANDLE FLORIDA

CITY           SKY/WX    TMP DP  RH WIND       PRES   REMARKS
PENSACOLA      SUNNY     76  75  97 N7        29.86F
PENSACOLA NAS  CLEAR     78  75  90 N7        29.86S
MILTON NAS     PTSUNNY   75  73  93 NE3       29.88R FOG
CRESTVIEW      CLOUDY    75  74  96 NE7       29.90R FOG
DUKE FIELD     FAIR      75  73  94 NE3       29.87S
VALPARAISO     MOSUNNY   77  74  89 NE6       29.86S
MARY ESTHER    SUNNY     77  73  88 NE7       29.85S
TRI COUNTY     FAIR      74  72  93 CALM      29.90S
PANAMA CITY    FAIR      75  73  93 N6        29.86S
TYNDALL AFB    PTSUNNY   77  77 100 NE5       29.85F
APALACHICOLA   PTSUNNY   81  78  91 NE6       29.85

STATION/POSITION SKY/WX   TEMP    WIND        PRES    WAVE   SWELL
                          AIR SEA DIR/SP/G            HT/PER HT/PER
                          (F)     (DEG/KT/KT) (MB)    (FT/S) (FT/S)
30.1N   87.6W              81 85   30/ 12/ 14 1010.2S   1/ 9
29.2N   88.2W              84 87   10/  4/  6 1011.0R   1/ 4
28.8N   86.0W              82 86  290/  4/  4 1011.1R   4/ 7   3/ 7
PANAMA CITY BEAC           76 85   30/  6/  7 1011.2R
CAPE SAN BLAS    NOT AVBL
TOWER C                    82     270/  8/  9 1011.0F
28.5N   84.5W              85 85  220/ 19/ 23 1011.4R   7/ 6

$$
FLZ011-016>038-118-127-128-134-139-239-011300-
NORTH FLORIDA

CITY           SKY/WX    TMP DP  RH WIND       PRES   REMARKS
MARIANNA       CLOUDY    74  74 100 NE6       29.89R
TALLAHASSEE    PTSUNNY   79  76  90 CALM      29.87F
PERRY          PTSUNNY   77  77 100 CALM      29.89F
CROSS CITY       N/A     76  76 100 CALM      29.90R
LAKE CITY      CLOUDY    73  73 100 S3        29.92S
GAINESVILLE    PTSUNNY   75  73  93 S7        29.92F
MAYPORT NAS    CLOUDY    78  74  87 SW13      29.93R
JACKSONVILLE   PTSUNNY   77  74  90 S6        29.93R
JAX NAS        CLOUDY    81  73  76 S10       29.94R
JAX CRAIG      CLOUDY    78  73  84 SW8       29.93R
JAX CECIL      CLOUDY    75  73  94 S6        29.93R
FERNANDINA BEA FAIR      81  73  78 SW8       29.92R
ST AUGUSTINE   LGT RAIN  76  74  93 S7        29.96R FOG

STATION/POSITION SKY/WX   TEMP    WIND        PRES    WAVE   SWELL
                          AIR SEA DIR/SP/G            HT/PER HT/PER
                          (F)     (DEG/KT/KT) (MB)    (FT/S) (FT/S)
SHELL POINT                78     360/  5/  6   N/A
KEATON BEACH               78     230/  5/  6 1011.9F
CEDAR KEY                  83     210/ 16/ 23 1012.8R
FERNANDINA                 78 86  190/  7/ 11 1012.5R
30.7N   81.3W                 83                N/A     3/ 5
MAYPORT                    77 85  210/  6/ 10 1013.4R
31.4N   80.9W              80 82  240/ 10/ 12 1013.1R   3/ 6   2/ 6
ST AUGUSTINE               77 81  210/  8/  9 1014.9R

$$
FLZ040-043>046-052-053-057-058-063-144-011300-
INTERIOR CENTRAL FLORIDA

CITY           SKY/WX    TMP DP  RH WIND       PRES   REMARKS
OCALA          PTSUNNY   73  72  94 S9        29.94F FOG
THE VILLAGES     N/A     77  77 100 SE7       29.86F
LEESBURG       CLOUDY    77  72  84 SW7       29.97R
SANFORD        CLOUDY    78  72  81 S7        29.97R
ORLANDO EXEC   CLOUDY    77  73  87 S7        29.98R
ORLANDO INTL   CLOUDY    75  73  93 S7        29.99R
KISSIMMEE      PTSUNNY   75  72  88 SE6       29.99R
WINTER HAVEN   CLOUDY    76  71  85 S6        29.99R
LAKELAND       CLOUDY    73  72  94 S3        29.98R
BARTOW         CLOUDY    73  73 100 S12       29.99R
OKEECHOBEE     CLOUDY    73  72  94 CALM      29.99R

$$
FLZ041-047-054-059-064-141-147-011300-
EAST CENTRAL FLORIDA

CITY           SKY/WX    TMP DP  RH WIND       PRES   REMARKS
ORMOND BEACH   CLOUDY    77  72  83 SW6       29.96R
DAYTONA BEACH  PTSUNNY   77  72  84 S7        29.97R
DELAND           N/A     77  72  83 CALM      29.98R
NEW SMYRNA BEA MOSUNNY   75  72  88 SW7       29.97R
JFK SPACE CTR  PTSUNNY   76  69  77 SW9       29.97R
TITUSVILLE     PTSUNNY   73  72  94 S12       29.99R
CAPE CANAVERAL PTSUNNY   77  70  80 S6        29.98R
PATRICK AFB    CLOUDY    77  69  77 SW12      29.98R
MELBOURNE      CLOUDY    75  68  78 S8        29.99R
VERO BEACH     CLOUDY    75  68  78 W3        29.98S
FT PIERCE      CLOUDY    73  70  90 NW3       29.98R
STUART         RAIN      72  72 100 SE7       29.98F

STATION/POSITION SKY/WX   TEMP    WIND        PRES    WAVE   SWELL
                          AIR SEA DIR/SP/G            HT/PER HT/PER
                          (F)     (DEG/KT/KT) (MB)    (FT/S) (FT/S)
28.5N   80.2W              78 81  200/ 16/ 17 1015.4R
28.9N   78.5W              80 84  250/ 25/ 29 1015.2R
TRIDENT PIER               77 78  210/  8/ 11 1015.6R
28.4N   80.5W                 79                N/A     2/ 4
27.5N   80.2W                 76                N/A     2/11

$$
FLZ050-056-061-142-242-148-248-149-249-151-251-155-255-
160-260-011300-
WEST CENTRAL FLORIDA

CITY           SKY/WX    TMP DP  RH WIND       PRES   REMARKS
CRYSTAL RIVER  PTSUNNY   73  73 100 S3        29.93F
INVERNESS      PTSUNNY   73  73 100 S6        29.95F
BROOKSVILLE    CLOUDY    75  74  96 S7        29.95F
ZEPHYRHILLS    PTSUNNY   72  72 100 CALM      29.98R
CLEARWATER     CLOUDY    79  75  87 SE6       29.95R
TAMPA INTL     CLOUDY    78  75  90 S6        29.96R
TAMPA EXEC     CLOUDY    77  73  88 S3        29.96F
PLANT CITY     CLOUDY    75  75 100 SE5       29.99S
MACDILL AFB    CLOUDY    78  78 100 S7        29.96R
PETER O KNIGHT CLOUDY    81  77  89 S10       29.96S
ST PETERSBURG  CLOUDY    80  77  90 S9        29.94R
SARASOTA       CLOUDY    77  75  93 S8        29.95R
VENICE         FAIR      77  75  94 SE6       29.98R

STATION/POSITION SKY/WX   TEMP    WIND        PRES    WAVE   SWELL
                          AIR SEA DIR/SP/G            HT/PER HT/PER
                          (F)     (DEG/KT/KT) (MB)    (FT/S) (FT/S)
CEDAR KEY                  83     210/ 16/ 23 1012.8R
28.5N   84.5W              85 85  220/ 19/ 23 1011.4R   7/ 6
27.3N   84.2W                 84                N/A     5/ 7
CLEARWATER BEACH           83 83  210/ 15/ 17 1014.0R
MIDDLE TAMPA BAY           79     180/ 10/ 12 1014.4R
VENICE                     81 85  150/ 11/ 12 1014.4R

$$
FLZ066-069-070-075>078-162-262-165-265-011300-
SOUTHWEST FLORIDA AND KEYS

CITY           SKY/WX    TMP DP  RH WIND       PRES   REMARKS
PUNTA GORDA    CLOUDY    75  74  96 S6        29.99S
FT MYERS       CLOUDY    76  74  93 SE5       29.97S
SOUTHWEST INTL CLOUDY    76  73  91 E3        29.98S
NAPLES         CLOUDY    80  73  79 NE3       29.97R
MARCO ISLAND   PTSUNNY   75  72  88 SE6       29.97R
MARATHON       MOSUNNY   85  78  80 VRB5      29.99R HX  96
KEY WEST NAS   PTSUNNY   85  76  74 S10       29.99R
KEY WEST INTL  MOSUNNY   85  77  77 S10G16    29.99R HX  95

STATION/POSITION SKY/WX   TEMP    WIND        PRES    WAVE   SWELL
                          AIR SEA DIR/SP/G            HT/PER HT/PER
                          (F)     (DEG/KT/KT) (MB)    (FT/S) (FT/S)
VENICE                     81 85  150/ 11/ 12 1014.4R
NAPLES                        85              1015.5F
26.0N   85.6W              84 84  210/ 12/ 16 1013.5S   3/ 5   2/ 6
DRY TORTUGAS               85     160/ 13/ 14 1014.9R
NW FL BAY                  86     140/  9/ 11 1015.3
SAND KEY                   85     160/ 12/ 14 1015.3R
SOMBRERO KEY               85     160/ 10/ 12 1016.2R
LONG KEY                   85 88  160/ 10/ 12 1016.3R
MOLASSES REEF              85 87  160/  9/ 11 1015.6R

$$
FLZ067-068-071>074-168-172>174-011300-
SOUTHEAST FLORIDA

CITY           SKY/WX    TMP DP  RH WIND       PRES   REMARKS
W PALM BEACH   CLOUDY    76  72  87 CALM      30.00S
FT LAUDER-EXEC CLOUDY    78  71  79 E3        30.00R
FT LAUDERDALE  CLOUDY    78  71  79 N6        29.99R
POMPANO BEACH  CLOUDY    78  70  76 E3        30.00S
PEMBROKE PINES CLOUDY    78  71  79 CALM      30.01R
OPA LOCKA      CLOUDY    78  72  81 N3        30.00R
MIAMI          CLOUDY    79  71  76 CALM      30.00R
WEST KENDALL   PTSUNNY   77  74  90 CALM      30.00R
HOMESTEAD      PTSUNNY   77  73  86 N2        30.00R

STATION/POSITION SKY/WX   TEMP    WIND        PRES    WAVE   SWELL
                          AIR SEA DIR/SP/G            HT/PER HT/PER
                          (F)     (DEG/KT/KT) (MB)    (FT/S) (FT/S)
PORT EVERGLADES            80      10/  5/  8 1015.8R
VIRGINIA KEY               83 86  190/  3/  4 1015.1F
LAKE WORTH                 76 82  320/  4/  5 1015.5F



USA.gov is the U.S. government's official web portal to all federal, state and local government web resources and services.